• In Austria
  • List of Countries
  • For 7 days
  • Water Temperature
  • Satellite Maps
  • Weather Map
  • News
  • Weather Widgets
  • user-avatar
    Login

    Hourly Weather Hurghada

    Today, 18 October, Wednesday

    Time Temperature Precipitation Wind Pressure Humidity
    00:00 +18°C° 0 mm 3 mps 683 mmHg 56%
    01:00 +17°C° 0 mm 3 mps 683 mmHg 59%
    02:00 +17°C° 0 mm 3 mps 682 mmHg 58%
    03:00 +17°C° 0 mm 3 mps 682 mmHg 59%
    04:00 +16°C° 0 mm 3 mps 682 mmHg 59%
    05:00 +16°C° 0 mm 3 mps 682 mmHg 60%
    06:00 +18°C° 0 mm 3 mps 683 mmHg 54%
    07:00 +19°C° 0 mm 3 mps 683 mmHg 48%
    08:00 +21°C° 0 mm 3 mps 684 mmHg 39%
    09:00 +24°C° 0 mm 3 mps 684 mmHg 34%
    10:00 +26°C° 0 mm 3 mps 684 mmHg 28%
    11:00 +27°C° 0 mm 3 mps 684 mmHg 23%
    12:00 +28°C° 0 mm 3 mps 684 mmHg 22%
    13:00 +28°C° 0 mm 3 mps 684 mmHg 20%
    14:00 +29°C° 0 mm 3 mps 684 mmHg 18%
    15:00 +28°C° 0 mm 3 mps 683 mmHg 20%
    16:00 +27°C° 0 mm 3 mps 683 mmHg 22%
    17:00 +27°C° 0 mm 3 mps 683 mmHg 23%
    18:00 +25°C° 0 mm 2 mps 683 mmHg 26%
    19:00 +24°C° 0 mm 2 mps 683 mmHg 28%
    20:00 +23°C° 0 mm 2 mps 683 mmHg 31%
    21:00 +21°C° 0 mm 2 mps 683 mmHg 31%
    22:00 +21°C° 0 mm 1 mps 683 mmHg 31%
    23:00 +21°C° 0 mm 1 mps 683 mmHg 30%

    Tomorrow, 19 October, Thursday

    Time Temperature Precipitation Wind Pressure Humidity
    00:00 +20°C° 0 mm 1 mps 682 mmHg 31%
    01:00 +20°C° 0 mm 1 mps 682 mmHg 31%
    02:00 +18°C° 0 mm 2 mps 682 mmHg 31%
    03:00 +18°C° 0 mm 2 mps 682 mmHg 32%
    04:00 +17°C° 0 mm 2 mps 682 mmHg 33%
    05:00 +17°C° 0 mm 2 mps 682 mmHg 35%
    06:00 +19°C° 0 mm 2 mps 683 mmHg 31%
    07:00 +21°C° 0 mm 2 mps 683 mmHg 28%
    08:00 +24°C° 0 mm 2 mps 684 mmHg 25%
    09:00 +25°C° 0 mm 2 mps 684 mmHg 23%
    10:00 +27°C° 0 mm 2 mps 685 mmHg 21%
    11:00 +28°C° 0 mm 2 mps 685 mmHg 19%
    12:00 +29°C° 0 mm 3 mps 685 mmHg 18%
    13:00 +29°C° 0 mm 3 mps 685 mmHg 18%
    14:00 +30°C° 0 mm 3 mps 684 mmHg 17%
    15:00 +29°C° 0 mm 3 mps 684 mmHg 20%
    16:00 +28°C° 0 mm 3 mps 684 mmHg 24%
    17:00 +27°C° 0 mm 3 mps 684 mmHg 27%
    18:00 +25°C° 0 mm 2 mps 684 mmHg 32%
    19:00 +24°C° 0 mm 2 mps 684 mmHg 36%
    20:00 +23°C° 0 mm 2 mps 684 mmHg 40%
    21:00 +21°C° 0 mm 2 mps 684 mmHg 41%
    22:00 +21°C° 0 mm 2 mps 684 mmHg 41%
    23:00 +21°C° 0 mm 2 mps 684 mmHg 42%

    Day after tomorrow, 20 October, Friday

    Time Temperature Precipitation Wind Pressure Humidity
    00:00 +20°C° 0 mm 2 mps 684 mmHg 42%
    01:00 +20°C° 0 mm 2 mps 683 mmHg 43%
    02:00 +19°C° 0 mm 3 mps 683 mmHg 43%
    03:00 +19°C° 0 mm 3 mps 683 mmHg 45%
    04:00 +18°C° 0 mm 3 mps 683 mmHg 47%
    05:00 +18°C° 0 mm 3 mps 683 mmHg 49%
    06:00 +19°C° 0 mm 3 mps 684 mmHg 45%
    07:00 +21°C° 0 mm 3 mps 684 mmHg 41%
    08:00 +22°C° 0 mm 3 mps 685 mmHg 36%
    09:00 +25°C° 0 mm 3 mps 685 mmHg 32%
    10:00 +26°C° 0 mm 3 mps 685 mmHg 28%
    11:00 +28°C° 0 mm 3 mps 686 mmHg 24%
    12:00 +28°C° 0 mm 3 mps 685 mmHg 23%
    13:00 +29°C° 0 mm 4 mps 685 mmHg 21%
    14:00 +29°C° 0 mm 4 mps 684 mmHg 20%
    15:00 +28°C° 0 mm 4 mps 684 mmHg 23%
    16:00 +27°C° 0 mm 4 mps 684 mmHg 25%
    17:00 +26°C° 0 mm 4 mps 684 mmHg 28%
    18:00 +25°C° 0 mm 3 mps 684 mmHg 32%
    19:00 +24°C° 0 mm 3 mps 684 mmHg 36%
    20:00 +22°C° 0 mm 3 mps 684 mmHg 40%
    21:00 +21°C° 0 mm 3 mps 684 mmHg 39%
    22:00 +21°C° 0 mm 2 mps 684 mmHg 39%
    23:00 +20°C° 0 mm 2 mps 684 mmHg 39%

    21 October, Saturday

    Time Temperature Precipitation Wind Pressure Humidity
    00:00 +20°C° 0 mm 2 mps 684 mmHg 40%
    01:00 +19°C° 0 mm 2 mps 683 mmHg 41%
    02:00 +19°C° 0 mm 2 mps 683 mmHg 41%
    03:00 +18°C° 0 mm 2 mps 683 mmHg 44%
    04:00 +18°C° 0 mm 2 mps 683 mmHg 46%
    05:00 +17°C° 0 mm 2 mps 683 mmHg 48%
    06:00 +19°C° 0 mm 2 mps 683 mmHg 45%
    07:00 +20°C° 0 mm 3 mps 684 mmHg 41%
    08:00 +22°C° 0 mm 3 mps 685 mmHg 37%
    09:00 +24°C° 0 mm 3 mps 685 mmHg 33%
    10:00 +26°C° 0 mm 3 mps 685 mmHg 29%
    11:00 +27°C° 0 mm 3 mps 685 mmHg 24%
    12:00 +28°C° 0 mm 3 mps 684 mmHg 22%
    13:00 +28°C° 0 mm 3 mps 684 mmHg 21%
    14:00 +29°C° 0 mm 3 mps 684 mmHg 19%
    15:00 +28°C° 0 mm 3 mps 683 mmHg 21%
    16:00 +27°C° 0 mm 3 mps 683 mmHg 24%
    17:00 +26°C° 0 mm 3 mps 683 mmHg 26%
    18:00 +25°C° 0 mm 3 mps 683 mmHg 30%
    19:00 +23°C° 0 mm 2 mps 683 mmHg 34%
    20:00 +21°C° 0 mm 2 mps 683 mmHg 38%
    21:00 +21°C° 0 mm 2 mps 683 mmHg 39%
    22:00 +20°C° 0 mm 2 mps 683 mmHg 39%
    23:00 +19°C° 0 mm 2 mps 683 mmHg 40%

    22 October, Sunday

    Time Temperature Precipitation Wind Pressure Humidity
    00:00 +19°C° 0 mm 2 mps 682 mmHg 40%
    01:00 +18°C° 0 mm 2 mps 682 mmHg 40%
    02:00 +18°C° 0 mm 2 mps 682 mmHg 41%
    03:00 +18°C° 0 mm 2 mps 682 mmHg 42%
    04:00 +17°C° 0 mm 2 mps 682 mmHg 44%
    05:00 +17°C° 0 mm 2 mps 682 mmHg 46%
    06:00 +18°C° 0 mm 2 mps 682 mmHg 42%
    07:00 +20°C° 0 mm 2 mps 683 mmHg 39%
    08:00 +23°C° 0 mm 2 mps 683 mmHg 36%
    09:00 +24°C° 0 mm 2 mps 683 mmHg 32%
    10:00 +26°C° 0 mm 2 mps 683 mmHg 28%
    11:00 +27°C° 0 mm 3 mps 684 mmHg 24%
    12:00 +28°C° 0 mm 3 mps 683 mmHg 22%
    13:00 +28°C° 0 mm 3 mps 683 mmHg 20%
    14:00 +29°C° 0 mm 4 mps 682 mmHg 19%
    15:00 +28°C° 0 mm 3 mps 682 mmHg 22%
    16:00 +27°C° 0 mm 3 mps 682 mmHg 24%
    17:00 +25°C° 0 mm 2 mps 682 mmHg 27%
    18:00 +24°C° 0 mm 2 mps 682 mmHg 31%
    19:00 +23°C° 0 mm 2 mps 682 mmHg 34%
    20:00 +21°C° 0 mm 2 mps 682 mmHg 38%
    21:00 +20°C° 0 mm 2 mps 682 mmHg 39%
    22:00 +20°C° 0 mm 2 mps 682 mmHg 39%
    23:00 +19°C° 0 mm 2 mps 682 mmHg 40%

    23 October, Monday

    Time Temperature Precipitation Wind Pressure Humidity
    00:00 +19°C° 0 mm 2 mps 682 mmHg 41%
    01:00 +18°C° 0 mm 2 mps 681 mmHg 42%
    02:00 +18°C° 0 mm 2 mps 681 mmHg 42%
    03:00 +17°C° 0 mm 2 mps 681 mmHg 44%
    04:00 +17°C° 0 mm 2 mps 681 mmHg 46%
    05:00 +17°C° 0 mm 3 mps 682 mmHg 47%
    06:00 +18°C° 0 mm 3 mps 682 mmHg 45%
    07:00 +19°C° 0 mm 3 mps 683 mmHg 42%
    08:00 +20°C° 0 mm 3 mps 683 mmHg 39%
    09:00 +22°C° 0 mm 3 mps 683 mmHg 36%
    10:00 +24°C° 0 mm 3 mps 683 mmHg 32%
    11:00 +25°C° 0 mm 4 mps 684 mmHg 28%
    12:00 +26°C° 0 mm 4 mps 683 mmHg 26%
    13:00 +27°C° 0 mm 4 mps 683 mmHg 24%
    14:00 +27°C° 0 mm 4 mps 683 mmHg 23%
    15:00 +26°C° 0 mm 4 mps 683 mmHg 25%
    16:00 +26°C° 0 mm 4 mps 683 mmHg 27%
    17:00 +25°C° 0 mm 4 mps 683 mmHg 30%
    18:00 +22°C° 0 mm 4 mps 683 mmHg 34%
    19:00 +21°C° 0 mm 3 mps 683 mmHg 37%
    20:00 +20°C° 0 mm 3 mps 683 mmHg 41%
    21:00 +20°C° 0 mm 3 mps 683 mmHg 41%
    22:00 +19°C° 0 mm 2 mps 683 mmHg 42%
    23:00 +18°C° 0 mm 2 mps 683 mmHg 43%
    Show more